| time (UTC) | temp F | wind direction | speed MPH | gust MPH | rain 1hr in | rain 24hr in | rain mn in | humidity % | barometer mb |
| 20260508122504 | 65 | 225 | 0.0 | 0.0 | 0.00 | 0.00 | 0.00 | 21 | 1021.6 |
| 20260508122003 | 65 | 226 | 0.0 | 0.0 | 0.00 | 0.00 | 0.00 | 21 | 1021.8 |
| 20260508121504 | 66 | 227 | 0.0 | 0.0 | 0.00 | 0.00 | 0.00 | 21 | 1021.7 |
| 20260508121004 | 66 | 230 | 0.0 | 0.0 | 0.00 | 0.00 | 0.00 | 21 | 1021.7 |
| 20260508120005 | 66 | 229 | 0.0 | 0.0 | 0.00 | 0.00 | 0.00 | 21 | 1021.6 |
| 20260508115504 | 66 | 236 | 0.0 | 0.0 | 0.00 | 0.00 | 0.00 | 21 | 1021.6 |
| 20260508115004 | 65 | 229 | 0.0 | 0.0 | 0.00 | 0.00 | 0.00 | 21 | 1021.6 |
| 20260508114503 | 65 | 227 | 0.0 | 0.0 | 0.00 | 0.00 | 0.00 | 22 | 1021.4 |
| 20260508114004 | 64 | 221 | 0.0 | 0.0 | 0.00 | 0.00 | 0.00 | 22 | 1021.4 |
| 20260508113005 | 64 | 202 | 0.0 | 0.0 | 0.00 | 0.00 | 0.00 | 23 | 1021.5 |
| 20260508112004 | 62 | 188 | 0.0 | 0.0 | 0.00 | 0.00 | 0.00 | 24 | 1021.4 |
| 20260508111003 | 62 | 188 | 0.0 | 0.0 | 0.00 | 0.00 | 0.00 | 25 | 1021.4 |
| 20260508110504 | 61 | 180 | 0.0 | 0.0 | 0.00 | 0.00 | 0.00 | 25 | 1021.5 |
| 20260508110004 | 62 | 180 | 0.0 | 0.0 | 0.00 | 0.00 | 0.00 | 25 | 1021.4 |
| 20260508105004 | 62 | 180 | 0.0 | 0.0 | 0.00 | 0.00 | 0.00 | 25 | 1021.4 |
| 20260508104004 | 63 | 180 | 0.0 | 0.0 | 0.00 | 0.00 | 0.00 | 25 | 1021.5 |
| 20260508103503 | 63 | 180 | 0.0 | 0.0 | 0.00 | 0.00 | 0.00 | 24 | 1021.5 |
| 20260508102504 | 64 | 180 | 0.0 | 0.0 | 0.00 | 0.00 | 0.00 | 24 | 1021.6 |
| 20260508102004 | 65 | 180 | 0.0 | 0.0 | 0.00 | 0.00 | 0.00 | 23 | 1021.5 |
| 20260508101504 | 66 | 204 | 0.0 | 0.0 | 0.00 | 0.00 | 0.00 | 23 | 1021.5 |
| 20260508101004 | 67 | 242 | 0.0 | 0.0 | 0.00 | 0.00 | 0.00 | 22 | 1021.4 |
| 20260508100504 | 69 | 273 | 0.0 | 0.0 | 0.00 | 0.00 | 0.00 | 21 | 1021.5 |
| 20260508100004 | 71 | 273 | 0.0 | 0.0 | 0.00 | 0.00 | 0.00 | 20 | 1021.6 |
| 20260508095504 | 72 | 273 | 0.0 | 0.0 | 0.00 | 0.00 | 0.00 | 19 | 1021.6 |
| 20260508094505 | 73 | 273 | 0.0 | 0.0 | 0.00 | 0.00 | 0.00 | 19 | 1021.6 |
| 20260508094009 | 73 | 285 | 0.0 | 0.0 | 0.00 | 0.00 | 0.00 | 19 | 1021.6 |
| 20260508093504 | 73 | 250 | 0.0 | 0.0 | 0.00 | 0.00 | 0.00 | 19 | 1021.6 |
| 20260508093004 | 73 | 253 | 0.0 | 0.0 | 0.00 | 0.00 | 0.00 | 19 | 1021.6 |
| 20260508092503 | 73 | 259 | 0.0 | 0.0 | 0.00 | 0.00 | 0.00 | 19 | 1021.7 |
| 20260508092004 | 73 | 264 | 0.0 | 0.0 | 0.00 | 0.00 | 0.00 | 20 | 1021.7 |
| 20260508091504 | 72 | 274 | 0.0 | 0.0 | 0.00 | 0.00 | 0.00 | 20 | 1021.7 |
| 20260508091004 | 72 | 259 | 0.0 | 0.0 | 0.00 | 0.00 | 0.00 | 20 | 1021.7 |
| 20260508090504 | 72 | 262 | 0.0 | 0.0 | 0.00 | 0.00 | 0.00 | 21 | 1021.8 |
| 20260508085504 | 72 | 257 | 0.0 | 0.0 | 0.00 | 0.00 | 0.00 | 21 | 1021.9 |
| 20260508085005 | 73 | 243 | 0.0 | 0.0 | 0.00 | 0.00 | 0.00 | 20 | 1022.0 |
| 20260508084004 | 74 | 298 | 0.0 | 0.0 | 0.00 | 0.00 | 0.00 | 20 | 1022.1 |
| 20260508083504 | 73 | 323 | 0.0 | 0.0 | 0.00 | 0.00 | 0.00 | 21 | 1022.1 |
| 20260508083003 | 73 | 275 | 0.0 | 0.0 | 0.00 | 0.00 | 0.00 | 21 | 1022.1 |
| 20260508082504 | 74 | 283 | 0.0 | 0.0 | 0.00 | 0.00 | 0.00 | 21 | 1022.0 |
| 20260508081504 | 73 | 306 | 0.0 | 0.0 | 0.00 | 0.00 | 0.00 | 22 | 1022.1 |
| 20260508081003 | 73 | 302 | 0.0 | 2.0 | 0.00 | 0.00 | 0.00 | 22 | 1022.1 |
| 20260508080504 | 74 | 238 | 0.0 | 0.0 | 0.00 | 0.00 | 0.00 | 22 | 1022.1 |
| 20260508080004 | 74 | 237 | 0.0 | 0.0 | 0.00 | 0.00 | 0.00 | 22 | 1022.2 |
| 20260508075505 | 74 | 232 | 0.0 | 0.0 | 0.00 | 0.00 | 0.00 | 22 | 1022.2 |
| 20260508075003 | 74 | 271 | 0.0 | 0.0 | 0.00 | 0.00 | 0.00 | 21 | 1022.3 |
| 20260508074503 | 74 | 295 | 0.0 | 0.0 | 0.00 | 0.00 | 0.00 | 22 | 1022.2 |
| 20260508074004 | 74 | 300 | 0.0 | 0.0 | 0.00 | 0.00 | 0.00 | 22 | 1022.3 |
| 20260508073504 | 73 | 277 | 0.0 | 0.0 | 0.00 | 0.00 | 0.00 | 23 | 1022.3 |
| 20260508073004 | 74 | 321 | 0.0 | 0.0 | 0.00 | 0.00 | 0.00 | 23 | 1022.3 |
| 20260508072503 | 73 | 284 | 0.0 | 0.0 | 0.00 | 0.00 | 0.00 | 23 | 1022.3 |
| 20260508072004 | 74 | 259 | 0.0 | 0.0 | 0.00 | 0.00 | 0.00 | 23 | 1022.3 |
| 20260508071504 | 75 | 175 | 0.0 | 0.0 | 0.00 | 0.00 | 0.00 | 23 | 1022.2 |
| 20260508071004 | 75 | 238 | 0.0 | 0.0 | 0.00 | 0.00 | 0.00 | 23 | 1022.2 |
| 20260508070504 | 76 | 281 | 0.0 | 0.0 | 0.00 | 0.00 | 0.00 | 23 | 1022.2 |
| 20260508070004 | 76 | 282 | 0.0 | 0.0 | 0.00 | 0.00 | 0.00 | 23 | 1022.1 |
| 20260508065504 | 76 | 277 | 0.0 | 0.0 | 0.00 | 0.00 | 0.00 | 23 | 1022.1 |
| 20260508065003 | 76 | 288 | 0.0 | 0.0 | 0.00 | 0.00 | 0.00 | 23 | 1022.2 |
| 20260508064504 | 76 | 287 | 0.0 | 0.0 | 0.00 | 0.00 | 0.00 | 23 | 1022.3 |
| 20260508064004 | 76 | 289 | 0.0 | 0.0 | 0.00 | 0.00 | 0.00 | 23 | 1022.3 |
| 20260508063503 | 76 | 288 | 0.0 | 0.0 | 0.00 | 0.00 | 0.00 | 24 | 1022.3 |
| 20260508063004 | 76 | 292 | 0.0 | 0.0 | 0.00 | 0.00 | 0.00 | 24 | 1022.4 |
| 20260508062504 | 76 | 295 | 0.0 | 0.0 | 0.00 | 0.00 | 0.00 | 24 | 1022.2 |
| 20260508061503 | 76 | 294 | 0.0 | 0.0 | 0.00 | 0.00 | 0.00 | 24 | 1022.2 |
| 20260508061003 | 76 | 284 | 0.0 | 0.0 | 0.00 | 0.00 | 0.00 | 24 | 1022.2 |
| 20260508060504 | 76 | 295 | 0.0 | 0.0 | 0.00 | 0.00 | 0.00 | 25 | 1022.1 |
| 20260508060003 | 76 | 294 | 0.0 | 0.0 | 0.00 | 0.00 | 0.00 | 25 | 1022.2 |
| 20260508055504 | 77 | 289 | 0.0 | 0.0 | 0.00 | 0.00 | 0.00 | 25 | 1022.3 |
| 20260508054505 | 77 | 290 | 0.0 | 0.0 | 0.00 | 0.00 | 0.00 | 25 | 1022.2 |
| 20260508053504 | 77 | 304 | 0.0 | 0.0 | 0.00 | 0.00 | 0.00 | 25 | 1022.2 |
| 20260508053004 | 77 | 296 | 0.0 | 0.0 | 0.00 | 0.00 | 0.00 | 25 | 1022.3 |
| 20260508052004 | 77 | 290 | 0.0 | 0.0 | 0.00 | 0.00 | 0.00 | 25 | 1022.4 |
| 20260508051504 | 77 | 296 | 0.0 | 0.0 | 0.00 | 0.00 | 0.00 | 25 | 1022.4 |
| 20260508051004 | 77 | 300 | 0.0 | 0.0 | 0.00 | 0.00 | 0.00 | 25 | 1022.4 |
| 20260508050504 | 77 | 302 | 0.0 | 0.0 | 0.00 | 0.00 | 0.00 | 25 | 1022.4 |
| 20260508045504 | 77 | 303 | 0.0 | 0.0 | 0.00 | 0.00 | 0.00 | 25 | 1022.3 |
| 20260508045005 | 77 | 306 | 0.0 | 0.0 | 0.00 | 0.00 | 0.00 | 25 | 1022.3 |
| 20260508044504 | 78 | 323 | 0.0 | 0.0 | 0.00 | 0.00 | 0.00 | 24 | 1022.3 |
| 20260508044004 | 78 | 300 | 0.0 | 0.0 | 0.00 | 0.00 | 0.00 | 24 | 1022.2 |
| 20260508043003 | 78 | 290 | 0.0 | 0.0 | 0.00 | 0.00 | 0.00 | 24 | 1022.1 |
| 20260508042503 | 78 | 294 | 0.0 | 0.0 | 0.00 | 0.00 | 0.00 | 24 | 1022.1 |
| 20260508042004 | 78 | 289 | 0.0 | 0.0 | 0.00 | 0.00 | 0.00 | 23 | 1022.1 |
| 20260508041505 | 78 | 292 | 0.0 | 0.0 | 0.00 | 0.00 | 0.00 | 22 | 1022.0 |
| 20260508041004 | 78 | 284 | 0.0 | 0.0 | 0.00 | 0.00 | 0.00 | 21 | 1022.0 |
| 20260508040503 | 78 | 298 | 0.0 | 0.0 | 0.00 | 0.00 | 0.00 | 21 | 1021.9 |
| 20260508035504 | 78 | 282 | 0.0 | 0.0 | 0.00 | 0.00 | 0.00 | 21 | 1021.9 |
| 20260508035004 | 78 | 284 | 0.0 | 0.0 | 0.00 | 0.00 | 0.00 | 21 | 1021.9 |
| 20260508034504 | 79 | 281 | 0.0 | 0.0 | 0.00 | 0.00 | 0.00 | 22 | 1021.9 |
| 20260508034004 | 79 | 288 | 0.0 | 0.0 | 0.00 | 0.00 | 0.00 | 22 | 1021.9 |
| 20260508033504 | 79 | 288 | 0.0 | 0.0 | 0.00 | 0.00 | 0.00 | 22 | 1021.9 |
| 20260508033005 | 78 | 287 | 0.0 | 0.0 | 0.00 | 0.00 | 0.00 | 23 | 1021.9 |
| 20260508032504 | 77 | 262 | 0.0 | 0.0 | 0.00 | 0.00 | 0.00 | 22 | 1021.6 |
| 20260508032004 | 77 | 244 | 0.0 | 0.0 | 0.00 | 0.00 | 0.00 | 22 | 1021.6 |
| 20260508031003 | 77 | 247 | 0.0 | 0.0 | 0.00 | 0.00 | 0.00 | 21 | 1021.4 |
| 20260508030504 | 77 | 247 | 0.0 | 0.0 | 0.00 | 0.00 | 0.00 | 21 | 1021.3 |
| 20260508030004 | 78 | 218 | 0.0 | 0.0 | 0.00 | 0.00 | 0.00 | 21 | 1021.2 |
| 20260508025504 | 78 | 242 | 0.0 | 0.0 | 0.00 | 0.00 | 0.00 | 21 | 1021.3 |
| 20260508025004 | 79 | 240 | 0.0 | 0.0 | 0.00 | 0.00 | 0.00 | 20 | 1021.2 |
| 20260508024505 | 80 | 239 | 0.0 | 0.0 | 0.00 | 0.00 | 0.00 | 20 | 1021.2 |
| 20260508024004 | 80 | 206 | 0.0 | 0.0 | 0.00 | 0.00 | 0.00 | 19 | 1021.2 |
| 20260508023504 | 82 | 255 | 0.0 | 0.0 | 0.00 | 0.00 | 0.00 | 18 | 1021.0 |
| 20260508023004 | 83 | 201 | 0.0 | 0.0 | 0.00 | 0.00 | 0.00 | 17 | 1021.0 |
| 20260508022004 | 85 | 295 | 0.0 | 9.0 | 0.00 | 0.00 | 0.00 | 13 | 1021.0 |
| 20260508021504 | 85 | 315 | 0.0 | 3.0 | 0.00 | 0.00 | 0.00 | 13 | 1020.9 |
| 20260508021004 | 85 | 320 | 0.0 | 3.0 | 0.00 | 0.00 | 0.00 | 13 | 1020.9 |
| 20260508020504 | 85 | 327 | 3.0 | 8.0 | 0.00 | 0.00 | 0.00 | 12 | 1020.8 |
| 20260508020004 | 86 | 338 | 6.0 | 10.0 | 0.00 | 0.00 | 0.00 | 12 | 1020.8 |
| 20260508015504 | 86 | 353 | 5.0 | 10.0 | 0.00 | 0.00 | 0.00 | 12 | 1020.8 |
| 20260508015004 | 86 | 334 | 5.0 | 9.0 | 0.00 | 0.00 | 0.00 | 12 | 1020.8 |
| 20260508014505 | 86 | 322 | 5.0 | 10.0 | 0.00 | 0.00 | 0.00 | 12 | 1020.8 |
| 20260508014004 | 87 | 331 | 6.0 | 9.0 | 0.00 | 0.00 | 0.00 | 12 | 1020.8 |
| 20260508013504 | 87 | 329 | 6.0 | 10.0 | 0.00 | 0.00 | 0.00 | 12 | 1020.7 |
| 20260508013004 | 87 | 316 | 6.0 | 12.0 | 0.00 | 0.00 | 0.00 | 12 | 1020.8 |
| 20260508012504 | 87 | 319 | 6.0 | 9.0 | 0.00 | 0.00 | 0.00 | 12 | 1020.8 |
| 20260508012004 | 87 | 307 | 5.0 | 8.0 | 0.00 | 0.00 | 0.00 | 13 | 1020.8 |
| 20260508011504 | 87 | 318 | 4.0 | 9.0 | 0.00 | 0.00 | 0.00 | 13 | 1020.9 |
| 20260508010005 | 88 | 345 | 10.0 | 14.0 | 0.00 | 0.00 | 0.00 | 13 | 1020.8 |
| 20260508005504 | 88 | 318 | 7.0 | 12.0 | 0.00 | 0.00 | 0.00 | 13 | 1020.9 |
| 20260508005004 | 88 | 3 | 6.0 | 12.0 | 0.00 | 0.00 | 0.00 | 13 | 1021.0 |
| 20260508004504 | 88 | 7 | 3.0 | 9.0 | 0.00 | 0.00 | 0.00 | 13 | 1021.0 |
| 20260508004003 | 88 | 13 | 6.0 | 13.0 | 0.00 | 0.00 | 0.00 | 13 | 1021.0 |
| 20260508003503 | 89 | 7 | 6.0 | 12.0 | 0.00 | 0.00 | 0.00 | 13 | 1021.0 |
| 20260508003005 | 89 | 351 | 7.0 | 13.0 | 0.00 | 0.00 | 0.00 | 13 | 1021.1 |
| 20260508002004 | 89 | 336 | 4.0 | 8.0 | 0.00 | 0.00 | 0.00 | 13 | 1020.9 |
| 20260508001505 | 89 | 349 | 7.0 | 12.0 | 0.00 | 0.00 | 0.00 | 13 | 1021.0 |
| 20260508000505 | 88 | 0 | 7.0 | 13.0 | 0.00 | 0.00 | 0.00 | 14 | 1021.0 |
| 20260508000004 | 89 | 35 | 5.0 | 10.0 | 0.00 | 0.00 | 0.00 | 14 | 1021.0 |
| 20260507235504 | 89 | 56 | 6.0 | 12.0 | 0.00 | 0.00 | 0.00 | 14 | 1021.0 |
| 20260507235004 | 89 | 29 | 6.0 | 12.0 | 0.00 | 0.00 | 0.00 | 14 | 1021.1 |
| 20260507234504 | 89 | 224 | 1.0 | 3.0 | 0.00 | 0.00 | 0.00 | 14 | 1021.1 |
| 20260507234004 | 88 | 270 | 2.0 | 9.0 | 0.00 | 0.00 | 0.00 | 14 | 1021.1 |
| 20260507233004 | 89 | 327 | 6.0 | 12.0 | 0.00 | 0.00 | 0.00 | 14 | 1021.2 |
| 20260507232004 | 89 | 323 | 5.0 | 10.0 | 0.00 | 0.00 | 0.00 | 14 | 1021.2 |
| 20260507231004 | 88 | 324 | 6.0 | 18.0 | 0.00 | 0.00 | 0.00 | 14 | 1021.2 |
| 20260507230504 | 88 | 127 | 4.0 | 12.0 | 0.00 | 0.00 | 0.00 | 14 | 1021.4 |
| 20260507230004 | 88 | 339 | 9.0 | 12.0 | 0.00 | 0.00 | 0.00 | 14 | 1021.4 |
| 20260507225503 | 88 | 318 | 1.0 | 10.0 | 0.00 | 0.00 | 0.00 | 14 | 1021.4 |
| 20260507225003 | 88 | 294 | 8.0 | 13.0 | 0.00 | 0.00 | 0.00 | 14 | 1021.4 |
| 20260507224503 | 89 | 1 | 7.0 | 13.0 | 0.00 | 0.00 | 0.00 | 14 | 1021.5 |
| 20260507223503 | 88 | 318 | 5.0 | 12.0 | 0.00 | 0.00 | 0.00 | 14 | 1021.5 |
| 20260507223003 | 89 | 331 | 5.0 | 13.0 | 0.00 | 0.00 | 0.00 | 14 | 1021.7 |
| 20260507222503 | 89 | 61 | 3.0 | 7.0 | 0.00 | 0.00 | 0.00 | 14 | 1021.7 |
| 20260507222003 | 88 | 88 | 2.0 | 8.0 | 0.00 | 0.00 | 0.00 | 15 | 1021.7 |
| 20260507221503 | 88 | 17 | 5.0 | 12.0 | 0.00 | 0.00 | 0.00 | 14 | 1021.9 |
| 20260507221003 | 88 | 343 | 7.0 | 12.0 | 0.00 | 0.00 | 0.00 | 14 | 1022.0 |
| 20260507220503 | 88 | 18 | 6.0 | 10.0 | 0.00 | 0.00 | 0.00 | 14 | 1022.1 |
| 20260507220002 | 87 | 322 | 7.0 | 12.0 | 0.00 | 0.00 | 0.00 | 14 | 1022.1 |
| 20260507215502 | 88 | 342 | 9.0 | 13.0 | 0.00 | 0.00 | 0.00 | 13 | 1022.3 |
| 20260507215002 | 88 | 269 | 1.0 | 5.0 | 0.00 | 0.00 | 0.00 | 14 | 1022.3 |
| 20260507214502 | 87 | 84 | 0.0 | 3.0 | 0.00 | 0.00 | 0.00 | 14 | 1022.3 |
| 20260507214004 | 87 | 53 | 1.0 | 6.0 | 0.00 | 0.00 | 0.00 | 13 | 1022.7 |
| 20260507213503 | 87 | 27 | 6.0 | 12.0 | 0.00 | 0.00 | 0.00 | 13 | 1022.7 |
| 20260507212502 | 88 | 33 | 8.0 | 15.0 | 0.00 | 0.00 | 0.00 | 13 | 1022.6 |
| 20260507211503 | 88 | 74 | 2.0 | 8.0 | 0.00 | 0.00 | 0.00 | 13 | 1022.7 |
| 20260507210503 | 87 | 61 | 1.0 | 8.0 | 0.00 | 0.00 | 0.00 | 14 | 1023.0 |
| 20260507210003 | 87 | 335 | 4.0 | 9.0 | 0.00 | 0.00 | 0.00 | 13 | 1023.0 |
| 20260507205503 | 87 | 81 | 3.0 | 6.0 | 0.00 | 0.00 | 0.00 | 13 | 1023.0 |
| 20260507205003 | 87 | 89 | 4.0 | 13.0 | 0.00 | 0.00 | 0.00 | 13 | 1023.1 |
| 20260507204503 | 87 | 35 | 5.0 | 12.0 | 0.00 | 0.00 | 0.00 | 13 | 1023.1 |
| 20260507203503 | 86 | 339 | 5.0 | 10.0 | 0.00 | 0.00 | 0.00 | 13 | 1023.2 |
| 20260507203003 | 87 | 20 | 7.0 | 13.0 | 0.00 | 0.00 | 0.00 | 13 | 1023.2 |
| 20260507202503 | 87 | 22 | 6.0 | 13.0 | 0.00 | 0.00 | 0.00 | 13 | 1023.3 |
| 20260507202002 | 86 | 96 | 3.0 | 6.0 | 0.00 | 0.00 | 0.00 | 14 | 1023.4 |
| 20260507201003 | 86 | 316 | 3.0 | 10.0 | 0.00 | 0.00 | 0.00 | 14 | 1023.6 |
| 20260507200502 | 85 | 347 | 6.0 | 12.0 | 0.00 | 0.00 | 0.00 | 14 | 1023.7 |
| 20260507200003 | 86 | 41 | 5.0 | 12.0 | 0.00 | 0.00 | 0.00 | 15 | 1023.7 |
| 20260507195503 | 87 | 30 | 6.0 | 12.0 | 0.00 | 0.00 | 0.00 | 14 | 1023.8 |
| 20260507195003 | 86 | 80 | 5.0 | 9.0 | 0.00 | 0.00 | 0.00 | 14 | 1024.0 |
| 20260507194503 | 86 | 72 | 3.0 | 9.0 | 0.00 | 0.00 | 0.00 | 14 | 1024.0 |
| 20260507193503 | 86 | 97 | 3.0 | 9.0 | 0.00 | 0.00 | 0.00 | 15 | 1024.0 |
| 20260507193003 | 85 | 14 | 2.0 | 8.0 | 0.00 | 0.00 | 0.00 | 15 | 1024.1 |
| 20260507191003 | 84 | 44 | 3.0 | 10.0 | 0.00 | 0.00 | 0.00 | 15 | 1024.2 |
| 20260507190503 | 85 | 333 | 3.0 | 8.0 | 0.00 | 0.00 | 0.00 | 15 | 1024.4 |
| 20260507190004 | 84 | 75 | 2.0 | 9.0 | 0.00 | 0.00 | 0.00 | 15 | 1024.5 |
| 20260507185502 | 84 | 24 | 4.0 | 9.0 | 0.00 | 0.00 | 0.00 | 16 | 1024.5 |
| 20260507185003 | 83 | 34 | 2.0 | 8.0 | 0.00 | 0.00 | 0.00 | 17 | 1024.5 |
| 20260507184502 | 83 | 286 | 5.0 | 10.0 | 0.00 | 0.00 | 0.00 | 16 | 1024.5 |
| 20260507184002 | 84 | 344 | 4.0 | 10.0 | 0.00 | 0.00 | 0.00 | 17 | 1024.5 |
| 20260507183502 | 84 | 275 | 2.0 | 8.0 | 0.00 | 0.00 | 0.00 | 17 | 1024.5 |
| 20260507182503 | 83 | 14 | 6.0 | 12.0 | 0.00 | 0.00 | 0.00 | 17 | 1024.6 |
| 20260507182003 | 83 | 5 | 8.0 | 12.0 | 0.00 | 0.00 | 0.00 | 17 | 1024.6 |
| 20260507181503 | 83 | 52 | 3.0 | 8.0 | 0.00 | 0.00 | 0.00 | 18 | 1024.6 |
| 20260507181003 | 83 | 355 | 3.0 | 10.0 | 0.00 | 0.00 | 0.00 | 18 | 1024.6 |
| 20260507180503 | 83 | 31 | 5.0 | 12.0 | 0.00 | 0.00 | 0.00 | 18 | 1024.7 |
| 20260507180003 | 83 | 26 | 3.0 | 9.0 | 0.00 | 0.00 | 0.00 | 18 | 1024.6 |
| 20260507175503 | 82 | 51 | 4.0 | 14.0 | 0.00 | 0.00 | 0.00 | 18 | 1024.7 |
| 20260507175003 | 83 | 29 | 4.0 | 12.0 | 0.00 | 0.00 | 0.00 | 18 | 1024.8 |
| 20260507174503 | 83 | 16 | 7.0 | 12.0 | 0.00 | 0.00 | 0.00 | 18 | 1024.7 |
| 20260507174003 | 82 | 7 | 6.0 | 12.0 | 0.00 | 0.00 | 0.00 | 18 | 1024.9 |
| 20260507173503 | 82 | 45 | 6.0 | 12.0 | 0.00 | 0.00 | 0.00 | 19 | 1025.0 |
| 20260507173002 | 82 | 22 | 9.0 | 12.0 | 0.00 | 0.00 | 0.00 | 19 | 1025.0 |
| 20260507172503 | 82 | 40 | 2.0 | 10.0 | 0.00 | 0.00 | 0.00 | 19 | 1024.9 |
| 20260507172003 | 82 | 43 | 4.0 | 12.0 | 0.00 | 0.00 | 0.00 | 19 | 1024.7 |
| 20260507171504 | 81 | 323 | 4.0 | 12.0 | 0.00 | 0.00 | 0.00 | 18 | 1024.8 |
| 20260507171003 | 81 | 338 | 6.0 | 9.0 | 0.00 | 0.00 | 0.00 | 19 | 1024.8 |
| 20260507170502 | 81 | 336 | 4.0 | 12.0 | 0.00 | 0.00 | 0.00 | 19 | 1024.7 |
| 20260507164503 | 81 | 335 | 6.0 | 9.0 | 0.00 | 0.00 | 0.00 | 19 | 1024.8 |
| 20260507164003 | 81 | 5 | 5.0 | 10.0 | 0.00 | 0.00 | 0.00 | 19 | 1024.9 |
| 20260507163504 | 81 | 18 | 3.0 | 12.0 | 0.00 | 0.00 | 0.00 | 19 | 1024.9 |
| 20260507163003 | 80 | 331 | 6.0 | 12.0 | 0.00 | 0.00 | 0.00 | 19 | 1024.9 |
| 20260507162503 | 81 | 343 | 3.0 | 10.0 | 0.00 | 0.00 | 0.00 | 19 | 1024.8 |
| 20260507162003 | 81 | 342 | 5.0 | 15.0 | 0.00 | 0.00 | 0.00 | 19 | 1024.7 |
| 20260507161503 | 80 | 344 | 7.0 | 12.0 | 0.00 | 0.00 | 0.00 | 19 | 1024.8 |
| 20260507161003 | 80 | 19 | 9.0 | 12.0 | 0.00 | 0.00 | 0.00 | 19 | 1024.8 |
| 20260507160503 | 80 | 9 | 6.0 | 12.0 | 0.00 | 0.00 | 0.00 | 20 | 1024.8 |
| 20260507160003 | 80 | 9 | 9.0 | 13.0 | 0.00 | 0.00 | 0.00 | 20 | 1024.8 |
| 20260507155503 | 80 | 320 | 6.0 | 10.0 | 0.00 | 0.00 | 0.00 | 20 | 1024.8 |
| 20260507155003 | 79 | 349 | 6.0 | 12.0 | 0.00 | 0.00 | 0.00 | 20 | 1024.7 |
| 20260507154004 | 77 | 24 | 3.0 | 9.0 | 0.00 | 0.00 | 0.00 | 23 | 1024.6 |
| 20260507153504 | 76 | 25 | 3.0 | 6.0 | 0.00 | 0.00 | 0.00 | 25 | 1024.7 |
| 20260507153003 | 75 | 10 | 3.0 | 5.0 | 0.00 | 0.00 | 0.00 | 26 | 1024.8 |
| 20260507152503 | 74 | 16 | 2.0 | 5.0 | 0.00 | 0.00 | 0.00 | 26 | 1024.9 |
| 20260507152003 | 74 | 38 | 2.0 | 5.0 | 0.00 | 0.00 | 0.00 | 27 | 1024.9 |
| 20260507151503 | 73 | 20 | 2.0 | 6.0 | 0.00 | 0.00 | 0.00 | 27 | 1024.8 |
| 20260507151003 | 73 | 22 | 2.0 | 3.0 | 0.00 | 0.00 | 0.00 | 27 | 1024.9 |
| 20260507150503 | 72 | 19 | 1.0 | 3.0 | 0.00 | 0.00 | 0.00 | 28 | 1024.9 |
| 20260507150003 | 71 | 38 | 1.0 | 3.0 | 0.00 | 0.00 | 0.00 | 28 | 1024.9 |
| 20260507145504 | 71 | 30 | 1.0 | 3.0 | 0.00 | 0.00 | 0.00 | 28 | 1024.9 |
| 20260507145003 | 71 | 17 | 1.0 | 3.0 | 0.00 | 0.00 | 0.00 | 28 | 1025.0 |
| 20260507144503 | 71 | 28 | 0.0 | 2.0 | 0.00 | 0.00 | 0.00 | 27 | 1025.0 |
| 20260507144003 | 72 | 36 | 1.0 | 3.0 | 0.00 | 0.00 | 0.00 | 27 | 1025.0 |
| 20260507143503 | 72 | 42 | 2.0 | 3.0 | 0.00 | 0.00 | 0.00 | 26 | 1025.0 |
| 20260507143003 | 73 | 3 | 1.0 | 3.0 | 0.00 | 0.00 | 0.00 | 26 | 1025.0 |
| 20260507142504 | 72 | 249 | 0.0 | 0.0 | 0.00 | 0.00 | 0.00 | 26 | 1024.6 |
| 20260507142003 | 72 | 248 | 0.0 | 1.0 | 0.00 | 0.00 | 0.00 | 26 | 1024.6 |
| 20260507141502 | 71 | 248 | 0.0 | 0.0 | 0.00 | 0.00 | 0.00 | 27 | 1024.6 |
| 20260507140502 | 69 | 248 | 1.0 | 2.0 | 0.00 | 0.00 | 0.00 | 29 | 1024.5 |
| 20260507140004 | 67 | 243 | 0.0 | 1.0 | 0.00 | 0.00 | 0.00 | 29 | 1024.5 |
| 20260507135503 | 66 | 242 | 0.0 | 2.0 | 0.00 | 0.00 | 0.00 | 30 | 1024.5 |
| 20260507135003 | 65 | 243 | 1.0 | 2.0 | 0.00 | 0.00 | 0.00 | 31 | 1024.5 |
| 20260507134504 | 64 | 242 | 0.0 | 0.0 | 0.00 | 0.00 | 0.00 | 32 | 1024.5 |
| 20260507134002 | 63 | 244 | 0.0 | 0.0 | 0.00 | 0.00 | 0.00 | 33 | 1024.5 |
| 20260507133503 | 61 | 252 | 0.0 | 0.0 | 0.00 | 0.00 | 0.00 | 36 | 1024.5 |
| 20260507133004 | 59 | 251 | 0.0 | 0.0 | 0.00 | 0.00 | 0.00 | 36 | 1024.4 |
| 20260507132503 | 59 | 251 | 0.0 | 0.0 | 0.00 | 0.00 | 0.00 | 36 | 1024.2 |
| 20260507131002 | 59 | 251 | 0.0 | 0.0 | 0.00 | 0.00 | 0.00 | 35 | 1024.2 |
| 20260507130503 | 59 | 251 | 0.0 | 0.0 | 0.00 | 0.00 | 0.00 | 35 | 1024.0 |
| 20260507130004 | 59 | 251 | 0.0 | 0.0 | 0.00 | 0.00 | 0.00 | 35 | 1023.9 |
| 20260507125503 | 60 | 251 | 0.0 | 0.0 | 0.00 | 0.00 | 0.00 | 34 | 1024.0 |
| 20260507125004 | 60 | 251 | 0.0 | 0.0 | 0.00 | 0.00 | 0.00 | 34 | 1024.0 |
| 20260507124503 | 61 | 251 | 0.0 | 0.0 | 0.00 | 0.00 | 0.00 | 34 | 1024.0 |
| 20260507124003 | 61 | 250 | 0.0 | 0.0 | 0.00 | 0.00 | 0.00 | 35 | 1024.0 |
| 20260507123503 | 60 | 250 | 0.0 | 0.0 | 0.00 | 0.00 | 0.00 | 35 | 1024.0 |
| 20260507123004 | 60 | 250 | 0.0 | 0.0 | 0.00 | 0.00 | 0.00 | 35 | 1023.9 |